Location: Be?chatów
(51.3665°N, 19.3745°E)
Time: 07:38:36
(UTC+00:00)

NOSS 3-1 (A) - Pass Details

Date: 19 May 2025
Orbit: 667 x 1541 km, 63.4° (Epoch: 12 June)

Event Time Altitude Azimuth Distance (km) Brightness Sun altitude
Rises 22:38:24 0° 253° (WSW) 3,154 6.0 -18.7°
Reaches altitude 10° 22:40:43 10° 260° (W) 2,311 5.4 -18.7°
Maximum altitude 22:45:44 43° 332° (NNW) 1,214 4.4 -18.6°
Drops below altitude 10° 22:51:51 10° 43° (NE) 2,810 6.6 -18.6°
Sets 22:54:56 0° 50° (NE) 3,916 7.3 -18.6°
